Location: Brachstadt
(48.6975°N, 10.6755°E)
Time: 08:59:57
(UTC+00:00)

Cosmos 2082 Rocket - Pass Details

Date: 18 September 2020
Orbit: 834 x 853 km, 71.0° (Epoch: 24 October)

Event Time Altitude Azimuth Distance (km) Brightness Sun altitude
Rises 20:39:22 0° 333° (NNW) 3,393 6.4 -30.1°
Reaches altitude 10° 20:41:53 10° 338° (NNW) 2,456 5.4 -30.4°
Enters shadow 20:46:15 46° 16° (NNE) 1,112 2.9 -30.9°
